Regional Weather Roundup
Issued by NWS

Home | Current Version | Previous Version | Graphics & Text | Print | Product List | Glossary On
Versions: 1 2 3 4 5 6 7 8 9 10 11 12 13 14 15 16 17 18 19 20 21 22 23 24 25 26 27 28 29 30 31 32 33 34 35 36 37 38 39 40 41 42 43 44 45 46 47 48 49 50
000
ASUS43 KIND 040059
RWRIN

WEATHER ROUNDUP FOR INDIANA
NATIONAL WEATHER SERVICE INDIANAPOLIS IN
900 PM EDT FRI JUL 03 2015

NOTE: "FAIR" INDICATES FEW OR NO CLOUDS BELOW 12,000 FEET WITH NO
SIGNIFICANT WEATHER AND/OR OBSTRUCTIONS TO VISIBILITY.

* - STATION DOES NOT REPORT WEATHER SUCH AS PRECIPITATION OR FOG.

+ - STATION NOT QUALITY CONTROLLED BY THE NATIONAL WEATHER SERVICE.
    USE DATA WITH CAUTION...ESPECIALLY DEWPOINT AND RELATIVE
    HUMIDITY OBSERVATIONS.

INZ001>003-010>013-019-020-040200-
NORTHWEST INDIANA

CITY           SKY/WX    TMP DP  RH WIND       PRES   REMARKS
GARY /AIRPORT/ MOCLDY    66  57  72 VRB3      29.93S
RENSSELAER +   CLEAR     72  59  64 N6        29.91S

$$

LMZ046-743>745-040200-
SOUTHERN LAKE MICHIGAN

STATION/POSITION TIME  TEMP    WIND        PRES    WAVE
                       AIR SEA DIR/SP/G            HT
                 (UTC) (F)     (DEG/KT/KT) (MB)    (FT)
BURNS HARBOR     0000   66      60/  8/  8 1014.2R
MICHIGAN CITY    0000   63      20/  5/  5   N/A
5NW MICH CITY    0000   64 64   50/  6/  6   N/A     1

$$

INZ004-005-014>016-021>024-040200-
NORTH CENTRAL INDIANA

CITY           SKY/WX    TMP DP  RH WIND       PRES   REMARKS
GOSHEN         CLEAR     70  56  61 N6        29.91S
SOUTH BEND     CLEAR     68  55  63 N9        29.93R

$$

INZ006>009-017-018-025>027-040200-
NORTHEAST INDIANA

CITY           SKY/WX    TMP DP  RH WIND       PRES   REMARKS
ANGOLA *+        N/A     70  57  64 SE3       29.92S
FORT WAYNE     MOCLDY    70  60  70 NE6       29.90F

$$

INZ028-029-035-036-043>045-051>053-040200-
WEST CENTRAL INDIANA

CITY           SKY/WX    TMP DP  RH WIND       PRES   REMARKS
CRAWFORDSVL +  MOCLDY    68  60  74 CALM      29.90S
GREENCASTLE +  CLEAR     70  59  68 NE5       29.90S
LAFAYETTE      PTCLDY    70  63  78 CALM      29.89S
TERRE HAUTE    CLOUDY    73  65  75 NE5       29.89R

$$

INZ030>032-037>040-046>048-054>057-064-065-040200-
CENTRAL INDIANA

CITY           SKY/WX    TMP DP  RH WIND       PRES   REMARKS
INDIANAPOLIS   CLOUDY    71  62  73 N8        29.88R
-EAGLE CREEK   CLOUDY    70  63  78 CALM      29.89R
KOKOMO *+      PTCLDY    72  61  68 NE8       29.89S
MT COMFORT *+  CLOUDY    70  59  68 N7        29.90R
SHELBYVILLE    PTCLDY    70  65  84 CALM      29.88R

$$

INZ033-034-041-042-049-050-058-059-040200-
EAST CENTRAL INDIANA

CITY           SKY/WX    TMP DP  RH WIND       PRES   REMARKS
MUNCIE         MOCLDY    71  62  73 NE6       29.89S

$$

INZ060-061-067>069-081>083-085>088-040200-
SOUTHWEST INDIANA

CITY           SKY/WX    TMP DP  RH WIND       PRES   REMARKS
EVANSVILLE     MOCLDY    76  72  87 CALM      29.87R FOG
HUNTINGBURG *+ PTCLDY    73  70  88 NE5       29.87S

$$

INZ062-063-066-070>080-084-089>092-040200-
SOUTH CENTRAL AND SOUTHEAST INDIANA

CITY           SKY/WX    TMP DP  RH WIND       PRES   REMARKS
BLOOMINGTON    PTCLDY    71  64  78 NE5       29.88F
MADISON *+     CLOUDY    72  64  78 NE7       29.89S

$$




USA.gov is the U.S. government's official web portal to all federal, state and local government web resources and services.